This demonstration page uses our WeatherBlox Daily Observations layout. Learn more.

Left ArrowRight Arrow

Hourly Observations for February 1, 2017

Temp ( °F °C ) Dew Point ( °F °C ) Humidity (%) Winds ( mph kmh ) Pressure ( in mb ) Visibility ( mi km ) Precip ( " mm )
12:53 am 00:53 Mostly Clear 10 -12.2 3 -16.1 73 73 NW 10 17 30.45 1031 10 16 0.00 0.00
1:53 am 01:53 Partly Cloudy 5 -15 2 -16.7 87 87 WSW 7 11 30.46 1031 10 16 0.00 0.00
2:51 am 02:51 Mostly Cloudy 5 -15 1 -17 85 85 W 6 9 30.62 1037 10 16 0.00 0.00
2:53 am 02:53 Partly Cloudy 5 -15 1 -17.2 83 83 W 5 7 30.48 1032 10 16 0.00 0.00
3:10 am 03:10 Mostly Cloudy 5 -15 1 -17 85 85 W 5 7 30.62 1037 10 16 0.00 0.00
3:53 am 03:53 Cloudy 4 -15.6 1 -17.2 88 88 Calm 30.50 1033 10 16 0.00 0.00
4:16 am 04:16 Partly Cloudy 3 -16 0 -18 85 85 W 5 7 30.65 1038 10 16 0.00 0.00
4:53 am 04:53 Mostly Cloudy 4 -15.6 0 -17.8 83 83 W 5 7 30.53 1034 10 16 0.00 0.00
5:53 am 05:53 Mostly Clear 2 -16.7 -2 -18.9 83 83 SW 8 13 30.55 1034 10 16 0.00 0.00
6:53 am 06:53 Mostly Clear 2 -16.7 -1 -18.3 88 88 SW 9 15 30.57 1035 10 16 0.00 0.00
7:53 am 07:53 Cloudy 4 -15.6 0 -17.8 83 83 SW 12 19 30.58 1036 10 16 0.00 0.00
8:53 am 08:53 Sunny 6 -14.4 2 -16.7 83 83 SW 15 24 30.59 1036 10 16 0.00 0.00
9:53 am 09:53 Cloudy 10 -12.2 4 -15.6 76 76 SW 17 28 30.60 1036 10 16 0.00 0.00
10:20 am 10:20 Cloudy 10 -12 7 -14 85 85 SW 18 30 30.68 1039 10 16 0.00 0.00
10:41 am 10:41 Cloudy 12 -11.1 7 -13.9 80 80 SW 17 28 30.65 1038 9 14 0.00 0.00
10:48 am 10:48 Cloudy with Light Snow 12 -11 7 -14 79 79 SW 18 30 30.65 1038 6 10 0.00 0.00
10:53 am 10:53 Cloudy with Light Snow 12 -11.1 7 -13.9 80 80 SW 17 28 30.60 1036 4 6 0.00 0.03
11:03 am 11:03 Cloudy with Light Snow 12 -11 7 -14 79 79 SW 16 26 30.65 1038 3 4 0.00 0.00
11:42 am 11:42 Cloudy with Light Snow 12 -11 9 -13 85 85 SW 16 26 30.65 1038 4 6 0.00 0.00
11:53 am 11:53 Cloudy with Light Snow 13 -10.6 9 -12.8 84 84 SW 18 30 30.60 1036 4 6 0.00 0.03
12:20 pm 12:20 Cloudy with Light Snow 14 -10 9 -13 79 79 SW 18 30 30.65 1038 3 4 0.00 0.00
12:28 pm 12:28 Cloudy with Light Snow 14 -10 9 -13 79 79 SW 18 30 30.65 1038 6 10 0.00 0.00
12:53 pm 12:53 Cloudy with Light Snow 16 -8.9 11 -11.7 80 80 SW 18 30 30.60 1036 3 4 0.00 0.03
1:02 pm 13:02 Cloudy with Light Snow 16 -9 12 -11 86 86 SW 17 28 30.65 1038 4 6 0.00 0.00
1:31 pm 13:31 Cloudy 19 -7.2 10 -12.2 68 68 NW 13 20 30.62 1037 10 16 0.00 0.03
1:53 pm 13:53 Cloudy with Light Snow 19 -7.2 11 -11.7 71 71 WNW 13 20 30.60 1036 6 10 0.00 0.03
2:05 pm 14:05 Cloudy with Light Snow 19 -7.2 12 -11.1 74 74 NW 12 19 30.62 1037 3 4 0.00 0.03
2:13 pm 14:13 Cloudy with Light Snow 19 -7.2 11 -11.7 71 71 NW 13 20 30.62 1037 6 10 0.00 0.03
2:29 pm 14:29 Cloudy 19 -7.2 10 -12.2 68 68 NNW 12 19 30.62 1037 10 16 0.00 0.03
2:53 pm 14:53 Cloudy 19 -7.2 9 -12.8 65 65 NNW 12 19 30.61 1037 10 16 0.00 0.03
3:53 pm 15:53 Cloudy 18 -7.8 9 -12.8 68 68 NNW 8 13 30.63 1037 10 16 0.00 0.00
4:53 pm 16:53 Cloudy 19 -7.2 9 -12.8 65 65 NW 8 13 30.64 1038 10 16 0.00 0.00
5:53 pm 17:53 Cloudy 19 -7.2 9 -12.8 65 65 NW 8 13 30.64 1038 10 16 0.00 0.00
6:53 pm 18:53 Cloudy 18 -7.8 7 -13.9 62 62 WNW 10 17 30.65 1038 10 16 0.00 0.00
7:53 pm 19:53 Mostly Cloudy 13 -10.6 6 -14.4 74 74 W 5 7 30.65 1038 10 16 0.00 0.00
8:53 pm 20:53 Mostly Clear 10 -12.2 4 -15.6 76 76 WNW 5 7 30.66 1038 10 16 0.00 0.00
9:53 pm 21:53 Cloudy 14 -10 10 -12.2 84 84 WSW 3 6 30.65 1038 10 16 0.00 0.00
10:53 pm 22:53 Cloudy 12 -11.1 8 -13.3 84 84 W 6 9 30.64 1038 10 16 0.00 0.00
11:53 pm 23:53 Cloudy 13 -10.6 8 -13.3 81 81 W 3 6 30.64 1038 10 16 0.00 0.00

Powered by AerisWeather